Tracking 19847 objects as of 15-Sep-2019
HD Live streaming from Space Station
objects crossing your sky now

INSAT 2B

Track INSAT 2B now!
INSAT 2B is classified as:


NORAD ID: 22724
Int'l Code: 1993-048B
Perigee: 35,823.7 km
Apogee: 35,933.9 km
Inclination: 13.6 °
Period: 1,440.4 minutes
Semi major axis: 42249 km
RCS: 19.9526 m2 (large)
Launch date: July 22, 1993
Source: India (IND)
Launch site: FRENCH GUIANA (FRGUI)

Second of Spain's communications satellites; 15 multi-frequency transponders
aabbcc
Your satellite tracking list
Your tracking list is empty




NASA's NSSDC Master Catalog

Two Line Element Set (TLE):
1 22724U 93048B   19257.47399774  .00000118  00000-0  00000+0 0  9994
2 22724  13.5560  21.6382 0013035 160.0528  22.8075  0.99969210 95918
Source of the keplerian elements: AFSPC